Temperature
18 18 18 18 18 18 18 19 19 18 18 18 18 19 18 18 18 18 18 18 18 18 18 18 18 18 18 18 18 18 18 18 18 18 18 18 18 18 18 18 18 18 18
18 18 18 18 18 18 18 18 18 18 18 18 18 18 18 18 18 18 18 18 18 18 18 18 18 18 18 18 18 18 18 18 18 18 18 18 18 18 18 18 18 18 18
18 18 18 18 18 18 18 18 18 18 18 18 18 18 18 18 18 18 18 18 18 18 18 18 18 18 18 18 18 18 18 18 18 18 18 18 18 18 18 18 18 18 18
18 18 18 18 18 18 18 18 18 18 18 18 18 18 18 18 17 17 18 18 18 18 18 18 18 18 18 17 17 17 17 17 17 17 18 18 18 18 18 18 18 18 18
18 18 18 18 18 18 18 18 18 18 18 18 18 18 17 17 17 17 18 18 18 18 18 18 18 17 17 17 17 17 17 17 17 17 17 18 17 18 18 18 18 18 18
18 18 18 18 18 18 18 18 18 18 18 18 17 17 17 17 17 17 17 18 18 18 17 17 17 17 17 17 17 17 17 17 17 17 17 17 17 17 17 17 17 17 17
18 18 18 18 18 18 18 18 18 18 18 17 17 17 17 17 17 17 17 17 17 17 17 17 17 17 17 17 17 17 17 17 17 17 17 17 17 17 17 17 17 17 17
18 18 18 18 18 18 18 18 18 18 17 17 17 17 17 17 17 17 17 17 17 17 17 17 17 17 17 17 17 17 17 17 17 17 17 17 17 17 17 17 17 17 17
18 18 18 18 18 18 18 18 17 17 17 17 17 17 17 17 17 17 17 17 17 17 17 17 17 17 17 17 16 16 16 17 17 17 17 17 17 17 17 17 17 17 17
17 18 17 17 17 18 17 17 17 17 17 17 17 17 17 17 17 17 17 17 17 17 17 17 17 16 16 16 16 16 16 16 17 16 16 16 16 16 16 16 17 17 17
17 17 17 17 17 17 17 17 17 17 17 17 17 17 17 17 17 17 17 17 16 16 16 16 16 16 16 16 16 16 16 16 16 16 16 16 16 16 16 16 16 16 16
17 17 17 17 17 17 17 17 17 17 17 17 17 17 17 17 16 16 16 16 16 16 16 16 16 16 16 16 16 16 16 16 16 16 16 16 16 16 16 16 16 16 16
17 17 17 17 17 17 17 17 17 17 17 17 17 17 17 17 16 16 16 16 16 16 16 16 16 16 16 16 16 16 16 16 16 16 16 16 16 16 16 16 16 16 16
17 17 17 17 17 17 17 17 17 17 17 17 17 17 17 17 16 16 16 16 16 16 16 16 16 16 16 16 16 16 16 16 16 16 16 16 16 16 16 16 16 15 15
17 17 17 17 17 17 17 17 17 17 17 17 17 17 17 17 17 16 16 16 16 16 16 16 16 16 16 16 16 16 16 16 16 16 16 16 15 15 15 15 15 15 15
17 17 17 17 17 17 17 17 17 17 17 17 17 17 17 17 17 17 16 16 16 16 16 16 16 16 16 16 16 16 16 16 16 16 16 15 15 15 15 15 15 15 15
18 17 17 17 17 17 17 17 17 17 17 17 17 17 17 17 17 16 16 16 16 16 16 16 16 16 16 16 16 16 15 15 15 15 15 15 15 15 15 15 15 15 15
18 18 17 17 17 17 17 17 17 17 17 17 17 17 17 17 17 16 16 16 16 16 16 16 16 16 16 16 15 15 15 15 15 15 15 15 15 15 15 15 15 15 14
18 18 17 17 17 17 17 17 17 17 17 17 17 17 17 17 17 16 16 16 16 16 16 16 16 16 16 15 15 15 15 15 15 15 15 15 15 15 15 14 14 14 14
18 18 17 17 17 17 17 17 17 17 17 17 17 16 16 16 16 16 16 16 16 16 16 16 16 16 15 15 15 15 15 15 15 15 15 14 14 14 14 14 14 14 14
18 18 17 17 17 17 17 17 17 17 17 16 16 16 16 16 16 16 16 16 16 16 16 16 16 16 15 15 15 15 15 15 15 14 14 14 14 14 14 14 14 14 14
18 18 18 17 17 17 17 17 17 17 16 16 16 16 16 16 16 16 16 16 16 16 16 16 16 15 15 15 15 15 15 14 14 14 14 14 14 14 14 14 14 14 14
18 18 18 17 17 17 17 17 16 16 16 16 16 16 16 16 16 16 16 16 16 16 16 16 15 15 15 15 15 15 15 14 14 14 14 14 14 14 14 14 14 14 14
18 18 18 17 17 17 17 17 16 16 16 16 16 16 16 16 16 16 16 16 16 16 16 15 15 15 15 15 15 15 15 15 14 14 14 14 14 14 14 14 14 13 13
18 18 18 17 17 17 17 17 16 16 16 16 16 16 16 16 16 16 16 16 15 15 15 15 15 15 15 15 15 15 15 15 15 14 13 13 13 13 13 13 13 13 13
18 18 17 17 17 17 17 16 16 16 16 16 16 16 16 16 15 15 16 15 15 15 15 15 15 15 15 15 15 15 15 15 15 14 14 13 13 13 13 13 13 13 13
Wind_Speed
1 3 7 9 11 12 13 13 13 13 14 14 14 14 15 15 15 15 14 13 13 13 12 12 12 12 12 11 11 11 11 11 11 11 11 11 11 10 10 9 9 8 10
4 5 9 10 11 12 13 13 13 13 13 13 13 14 14 14 14 14 13 13 12 12 11 11 11 11 11 11 10 10 10 10 10 10 11 10 10 10 10 10 9 8 10
6 8 10 11 12 13 13 13 13 13 13 13 13 13 13 13 13 13 12 12 11 11 11 10 10 10 10 10 10 9 9 9 9 10 9 8 8 10 10 10 10 10 10
8 9 10 12 12 13 13 13 13 13 13 13 13 13 13 13 12 12 12 11 10 10 10 10 9 10 10 10 9 9 9 9 10 9 8 7 7 9 10 10 10 9 9
8 9 11 13 12 12 13 13 13 13 13 13 13 13 13 12 12 12 11 10 10 9 9 9 8 9 9 9 9 9 10 10 11 10 9 8 8 9 10 10 9 9 8
7 9 12 13 13 12 12 13 13 13 13 13 13 13 12 12 12 11 10 10 9 9 9 8 8 8 8 9 9 10 11 11 10 9 9 8 7 9 10 10 9 9 8
7 8 11 12 12 12 12 12 12 12 12 12 12 12 12 12 11 10 10 10 9 9 9 8 8 8 8 10 10 11 11 11 10 9 8 7 8 10 10 9 9 9 8
8 7 9 11 11 11 11 12 12 12 12 11 11 11 11 11 10 10 9 9 8 8 8 7 7 7 8 10 11 11 11 10 9 8 7 7 8 9 9 9 9 9 8
7 6 6 8 9 10 10 11 11 11 11 10 10 10 9 9 9 8 8 8 7 7 6 6 6 6 7 9 10 11 11 10 8 6 7 6 7 8 8 8 9 9 8
5 5 5 6 6 7 8 10 10 10 9 8 8 8 8 7 7 7 6 6 6 5 5 5 5 6 7 8 9 10 10 9 8 7 6 6 8 8 8 8 8 8 8
5 3 4 5 5 6 6 8 8 8 7 6 6 6 6 5 4 3 4 4 4 4 4 4 4 6 7 8 9 9 9 8 8 7 6 7 8 8 8 7 7 7 7
5 4 4 4 5 6 5 5 4 4 5 4 4 4 4 3 3 2 2 2 2 2 2 3 4 5 6 6 7 8 7 8 7 6 7 8 8 8 8 8 8 8 7
6 5 4 4 5 5 4 5 3 3 3 3 4 4 4 3 3 3 2 1 1 2 2 4 5 5 5 5 6 7 7 7 7 6 7 8 8 8 8 8 8 8 8
6 5 5 5 4 4 5 4 4 3 2 2 3 4 5 3 3 2 2 1 2 2 2 2 3 4 5 6 7 7 7 7 7 7 8 10 10 9 9 9 9 8 8
6 5 5 4 4 4 3 3 3 3 3 3 2 3 6 4 3 2 1 2 2 2 2 2 4 4 5 5 6 7 6 7 7 7 7 10 10 10 10 10 10 9 9
6 6 5 5 4 4 3 2 2 3 3 3 2 3 6 6 4 3 2 2 2 3 4 5 5 5 4 5 5 6 6 6 6 6 7 8 10 10 10 10 10 10 9
7 6 5 5 4 4 3 2 3 3 4 3 3 5 6 7 6 4 3 2 2 5 6 6 6 5 4 4 5 4 5 5 5 5 6 6 7 9 10 10 10 10 9
6 6 5 5 5 4 3 3 3 4 4 3 4 6 6 7 7 5 3 2 4 6 5 4 4 4 4 4 3 3 3 4 4 5 5 5 5 6 8 10 10 10 10
8 7 5 5 5 4 4 3 4 4 3 4 5 5 5 7 7 6 4 3 5 5 3 4 3 3 3 3 3 3 3 3 3 4 4 4 5 6 6 8 9 10 10
8 7 6 5 5 5 4 3 3 3 3 4 4 5 6 6 6 7 4 4 5 4 3 3 4 3 2 2 3 4 3 3 3 3 3 4 5 5 6 6 7 7 9
7 7 6 6 5 5 3 3 3 2 1 2 2 4 5 5 6 6 4 3 4 4 3 3 3 4 3 2 4 3 4 4 3 3 3 3 4 5 6 6 6 6 7
8 7 7 7 6 6 4 3 2 2 1 1 1 4 5 5 5 6 5 3 3 4 4 4 3 3 2 2 3 3 3 4 4 3 3 3 3 4 5 6 6 6 7
9 9 8 7 7 6 5 4 3 3 3 2 2 2 2 5 5 6 5 4 3 4 4 3 4 4 2 2 2 3 3 1 1 4 3 3 3 3 3 5 6 6 6
9 8 7 7 7 6 6 6 6 4 3 2 1 1 1 4 5 5 6 5 3 3 4 3 3 3 4 2 1 2 2 3 2 1 3 3 3 3 3 4 5 6 6
8 8 7 7 7 6 7 7 7 4 3 2 2 2 2 2 3 4 6 5 4 3 4 4 4 3 3 3 2 1 3 2 2 3 0 2 3 3 2 3 4 5 6
8 8 7 7 6 6 7 7 7 7 5 4 3 3 1 1 1 2 5 5 4 3 3 4 4 4 3 3 3 2 2 2 1 2 2 0 1 2 3 3 3 4 4
Wind_Direction
127 136 117 107 106 108 109 106 102 100 98 98 96 95 94 95 96 96 94 93 89 86 82 80 78 78 77 77 77 78 78 77 76 76 74 73 76 80 85 89 88 89 90
149 137 122 111 109 110 108 106 104 102 100 100 98 96 97 97 96 96 94 92 90 87 84 81 79 80 78 75 75 75 78 80 78 76 72 70 73 78 83 85 89 91 93
129 124 119 111 109 109 110 109 107 105 103 102 101 99 99 99 97 97 95 93 90 87 84 81 80 79 76 71 71 70 72 81 80 76 74 66 74 79 83 87 89 88 90
128 124 121 117 113 110 111 110 109 108 107 106 105 103 101 100 98 98 97 94 91 88 84 81 79 76 71 67 66 66 68 75 79 73 67 62 73 82 83 86 86 87 87
122 125 126 122 117 112 111 111 109 108 108 107 105 104 102 101 100 97 95 93 91 88 86 82 79 73 67 63 62 65 74 77 77 71 66 64 70 80 83 83 84 86 86
123 128 127 123 119 115 113 113 112 111 109 109 107 106 105 103 101 100 97 93 91 89 87 85 81 72 66 62 65 71 76 79 75 71 69 69 71 79 81 80 79 81 82
125 127 129 126 125 122 119 118 116 115 114 112 110 109 107 104 102 100 96 92 91 90 88 85 82 75 67 65 70 75 79 79 75 73 69 71 77 80 78 76 76 77 77
129 129 131 130 129 128 125 124 122 119 117 115 113 112 110 107 104 101 96 92 90 90 89 85 81 74 67 69 73 78 79 80 79 75 69 72 79 80 78 76 74 74 76
123 126 122 128 131 133 132 131 129 126 125 124 122 120 117 113 108 103 99 95 92 89 88 85 77 70 70 70 73 76 77 74 75 72 74 73 80 80 79 76 74 74 76
120 126 131 131 132 133 135 138 137 135 135 134 134 132 126 119 111 108 106 102 97 90 84 78 72 69 63 67 72 76 75 70 69 64 65 76 80 79 77 76 75 77 76
137 140 145 143 145 147 147 147 147 145 142 143 146 147 135 123 119 120 123 116 105 95 84 73 70 61 58 62 72 75 73 75 71 61 63 79 81 78 76 78 76 75 78
155 165 160 158 162 161 158 146 153 152 151 157 165 167 156 159 172 160 146 133 109 91 69 60 60 51 49 55 70 73 77 79 73 63 64 73 77 77 77 76 75 72 72
162 159 159 168 165 161 152 151 157 155 153 166 178 172 171 169 164 151 133 113 62 64 61 54 48 51 58 64 72 79 81 78 75 67 65 73 75 76 78 76 73 70 70
153 156 155 166 160 161 152 156 164 160 157 170 176 169 156 148 144 152 150 120 74 75 74 74 73 72 75 82 90 89 86 81 75 68 63 65 66 68 74 73 72 72 71
154 157 158 157 158 159 151 161 156 164 163 173 164 165 151 145 147 150 139 115 99 97 103 92 91 91 88 91 94 95 89 86 81 72 62 62 63 66 70 68 70 67 67
162 161 158 149 147 146 144 143 144 153 145 130 122 142 139 139 135 131 119 110 104 100 104 103 96 96 88 89 85 85 85 86 83 76 68 62 62 64 67 66 66 64 63
165 158 159 155 142 134 133 141 132 130 122 106 104 127 127 128 127 126 117 109 107 100 96 93 86 82 84 83 76 75 81 86 85 82 78 70 65 64 64 64 64 63 62
157 156 163 152 141 135 132 131 120 121 118 103 92 105 116 123 124 116 105 102 108 104 100 91 87 80 74 74 66 59 66 77 83 84 80 78 75 68 63 62 62 60 58
167 163 161 146 145 137 124 117 110 104 98 93 90 95 105 109 115 111 102 107 108 95 89 99 87 100 96 86 85 66 49 54 68 80 74 74 79 79 69 62 61 56 54
170 163 160 151 143 130 113 96 83 77 70 77 86 92 97 101 113 112 107 106 105 95 82 90 95 88 102 103 89 62 37 40 55 62 66 70 75 79 73 66 58 50 52
164 160 159 152 148 133 119 114 110 105 80 71 92 97 98 103 111 111 108 98 100 105 108 109 104 84 68 91 81 48 24 30 38 37 57 67 71 75 77 71 61 55 51
171 170 165 161 158 152 146 142 140 132 115 106 79 82 91 104 113 121 120 120 117 107 96 95 101 97 69 84 117 97 39 7 7 15 29 61 67 73 73 72 71 62 59
173 176 176 174 163 157 144 122 103 77 60 50 50 53 67 100 106 117 119 121 131 121 121 116 121 121 113 45 91 134 135 193 329 352 16 33 55 70 68 72 70 65 64
182 177 172 173 167 163 150 145 144 140 142 176 167 125 72 96 107 117 122 122 127 125 126 130 123 126 125 109 36 63 128 151 143 4 352 4 32 56 61 70 72 69 68
174 171 173 168 169 169 160 157 153 146 155 155 135 112 86 74 98 121 130 127 125 127 128 119 109 108 120 132 124 101 82 73 98 139 171 347 12 18 46 65 74 73 72
166 164 169 168 174 172 164 163 161 159 158 150 151 146 135 78 60 98 121 123 125 128 130 125 118 115 115 110 106 108 124 119 131 130 152 216 19 354 19 40 59 71 78
Height
1537 1537 1538 1538 1538 1538 1538 1537 1538 1538 1538 1539 1539 1539 1539 1539 1539 1540 1540 1541 1541 1541 1541 1541 1541 1540 1540 1540 1540 1540 1540 1540 1539 1539 1539 1539 1538 1538 1538 1538 1538 1538 1538
1537 1537 1538 1538 1538 1538 1538 1538 1539 1539 1539 1539 1540 1540 1540 1540 1541 1541 1541 1542 1542 1542 1542 1542 1542 1541 1541 1541 1541 1541 1541 1541 1541 1541 1540 1540 1540 1539 1539 1539 1539 1539 1538
1537 1538 1538 1538 1538 1538 1539 1539 1539 1539 1540 1540 1541 1541 1541 1542 1542 1542 1542 1542 1543 1543 1543 1543 1542 1542 1542 1542 1542 1542 1542 1542 1542 1542 1541 1541 1541 1541 1540 1540 1540 1540 1540
1537 1538 1538 1539 1539 1539 1540 1540 1540 1541 1541 1541 1541 1542 1542 1543 1543 1543 1543 1543 1544 1544 1543 1543 1543 1543 1543 1543 1544 1544 1544 1544 1543 1543 1543 1542 1542 1542 1541 1541 1541 1541 1541
1538 1539 1539 1539 1540 1540 1541 1541 1541 1541 1542 1542 1542 1543 1543 1543 1544 1544 1544 1545 1545 1544 1544 1544 1544 1545 1545 1545 1545 1545 1545 1544 1544 1544 1544 1543 1543 1543 1542 1542 1542 1541 1541
1539 1539 1540 1540 1541 1541 1542 1542 1542 1542 1543 1543 1543 1544 1544 1544 1545 1545 1546 1546 1546 1545 1545 1545 1545 1546 1546 1546 1546 1546 1546 1546 1545 1545 1545 1545 1544 1544 1543 1543 1543 1542 1542
1539 1540 1541 1541 1542 1542 1543 1543 1543 1544 1544 1544 1545 1545 1545 1546 1546 1546 1547 1547 1547 1547 1546 1546 1547 1547 1547 1547 1547 1547 1547 1547 1547 1546 1546 1546 1545 1545 1544 1544 1543 1543 1542
1540 1541 1542 1542 1543 1543 1544 1544 1544 1545 1545 1546 1546 1546 1547 1547 1547 1548 1548 1548 1548 1548 1548 1548 1548 1548 1549 1549 1549 1548 1548 1548 1548 1547 1547 1546 1546 1546 1545 1544 1544 1543 1543
1541 1542 1542 1543 1544 1544 1545 1545 1546 1546 1546 1547 1548 1548 1548 1549 1549 1549 1549 1549 1549 1549 1549 1549 1550 1550 1550 1550 1550 1550 1550 1549 1549 1548 1548 1547 1547 1546 1546 1545 1544 1544 1543
1542 1543 1543 1544 1545 1545 1546 1546 1547 1547 1548 1548 1549 1549 1550 1550 1550 1551 1551 1551 1551 1551 1551 1551 1551 1552 1552 1552 1552 1551 1551 1551 1550 1549 1549 1548 1547 1547 1546 1545 1545 1544 1544
1543 1543 1544 1544 1545 1546 1546 1547 1548 1548 1549 1550 1550 1551 1551 1551 1552 1552 1553 1553 1553 1553 1553 1553 1553 1553 1553 1553 1553 1553 1552 1552 1551 1550 1550 1549 1548 1547 1547 1546 1545 1545 1544
1543 1544 1544 1545 1546 1547 1547 1548 1549 1549 1550 1550 1551 1552 1552 1552 1553 1554 1554 1554 1555 1555 1555 1555 1555 1555 1555 1555 1554 1554 1553 1553 1552 1551 1551 1550 1549 1548 1547 1547 1546 1546 1545
1543 1544 1545 1545 1546 1547 1548 1548 1549 1550 1551 1551 1552 1553 1553 1553 1554 1555 1555 1556 1556 1556 1556 1556 1556 1556 1556 1556 1555 1555 1555 1554 1553 1553 1552 1551 1550 1549 1548 1548 1547 1546 1545
1543 1544 1545 1546 1546 1547 1548 1549 1550 1551 1551 1552 1553 1553 1554 1554 1555 1555 1556 1557 1557 1557 1557 1557 1557 1557 1557 1557 1556 1556 1556 1555 1555 1554 1553 1552 1551 1550 1549 1548 1548 1547 1546
1543 1544 1545 1546 1547 1548 1549 1550 1551 1551 1552 1552 1553 1554 1554 1555 1556 1556 1557 1557 1558 1558 1558 1558 1558 1558 1558 1558 1558 1557 1557 1556 1556 1555 1554 1553 1552 1551 1550 1549 1548 1547 1546
1543 1545 1546 1547 1548 1549 1550 1550 1551 1552 1553 1553 1553 1554 1555 1556 1556 1557 1558 1558 1558 1559 1558 1558 1559 1559 1559 1559 1559 1558 1558 1558 1557 1556 1555 1554 1553 1552 1551 1550 1549 1548 1547
1543 1545 1546 1547 1548 1549 1550 1551 1552 1552 1553 1553 1554 1555 1556 1556 1557 1558 1558 1558 1559 1559 1559 1559 1560 1560 1560 1560 1560 1559 1559 1559 1558 1557 1556 1555 1554 1553 1552 1551 1550 1549 1548
1543 1544 1546 1547 1548 1549 1551 1551 1552 1553 1554 1554 1555 1555 1556 1557 1558 1558 1558 1559 1559 1560 1560 1560 1560 1560 1561 1561 1560 1560 1560 1560 1559 1558 1557 1556 1555 1554 1553 1552 1551 1549 1548
1542 1544 1545 1547 1548 1550 1551 1552 1553 1553 1554 1555 1555 1556 1557 1557 1558 1558 1559 1559 1560 1560 1560 1561 1561 1561 1561 1561 1561 1561 1561 1561 1560 1559 1558 1557 1556 1555 1554 1553 1552 1551 1550
1542 1544 1545 1546 1548 1549 1551 1552 1553 1554 1554 1555 1556 1556 1557 1558 1558 1559 1559 1559 1560 1560 1560 1561 1561 1562 1562 1562 1562 1562 1562 1562 1561 1560 1559 1558 1557 1556 1555 1554 1553 1552 1551
1541 1543 1545 1546 1547 1549 1550 1551 1552 1553 1554 1555 1556 1556 1557 1558 1558 1559 1559 1559 1560 1560 1560 1561 1561 1562 1562 1562 1562 1562 1563 1562 1562 1561 1560 1559 1558 1557 1556 1555 1554 1553 1552
1540 1542 1543 1545 1546 1548 1550 1551 1552 1553 1554 1555 1556 1556 1557 1558 1558 1558 1559 1559 1560 1560 1561 1561 1561 1561 1562 1562 1563 1562 1563 1564 1562 1562 1561 1560 1559 1558 1557 1556 1556 1554 1553
1538 1540 1542 1544 1546 1547 1549 1550 1551 1553 1553 1554 1555 1556 1557 1557 1558 1558 1559 1559 1560 1560 1560 1561 1561 1561 1562 1562 1562 1563 1563 1562 1563 1563 1562 1561 1560 1559 1558 1558 1556 1555 1554
1536 1539 1541 1542 1544 1546 1547 1549 1550 1551 1552 1553 1554 1555 1556 1557 1558 1558 1559 1559 1560 1560 1560 1560 1561 1561 1562 1562 1562 1562 1563 1562 1562 1563 1563 1561 1561 1560 1559 1558 1557 1556 1555
1535 1537 1539 1541 1543 1544 1546 1547 1549 1550 1552 1553 1554 1555 1556 1556 1557 1558 1558 1559 1559 1559 1560 1560 1561 1561 1561 1562 1562 1562 1562 1562 1562 1562 1561 1562 1561 1560 1560 1559 1558 1557 1556
1533 1535 1537 1539 1541 1543 1544 1546 1547 1549 1550 1552 1553 1554 1555 1555 1556 1557 1558 1558 1559 1559 1559 1560 1560 1561 1561 1561 1562 1562 1562 1562 1561 1561 1561 1561 1560 1560 1560 1559 1558 1557 1556